This demonstration page uses our WeatherBlox Daily Observations layout. Learn more.

Left ArrowRight Arrow

Hourly Observations for November 25, 2022

Temp ( °F °C ) Dew Point ( °F °C ) Humidity (%) Winds ( mph kmh ) Pressure ( in mb ) Visibility ( mi km ) Precip ( " mm )
12:55 am 00:55 Clear 37 2.5 30 -1.3 76 76 N 7 11 30.34 1027 10 16 0.00 0.00
1:55 am 01:55 Clear 35 1.7 30 -1.2 81 81 N 12 19 30.33 1027 10 16 0.00 0.00
2:55 am 02:55 Clear 36 2.3 30 -1.1 78 78 N 13 20 30.33 1027 10 16 0.00 0.00
3:55 am 03:55 Clear 35 1.5 29 -1.4 81 81 N 12 19 30.33 1027 10 16 0.00 0.00
4:55 am 04:55 Clear 34 1.2 29 -1.5 82 82 N 14 22 30.33 1027 10 16 0.00 0.00
5:55 am 05:55 Clear 33 0.8 29 -1.6 84 84 N 12 19 30.33 1027 10 16 0.00 0.00
6:55 am 06:55 Clear 32 0.2 29 -1.9 86 86 N 12 19 30.36 1028 10 16 0.00 0.00
7:55 am 07:55 Sunny 34 0.9 29 -1.7 83 83 NNE 12 19 30.37 1028 10 16 0.00 0.00
8:55 am 08:55 Sunny 38 3.3 30 -1.1 73 73 NNE 13 20 30.38 1029 10 16 0.00 0.00
9:55 am 09:55 Sunny 42 5.5 31 -0.6 65 65 NNE 10 17 30.38 1029 10 16 0.00 0.00
10:55 am 10:55 Sunny 46 7.5 32 0 59 59 ENE 7 11 30.38 1029 10 16 0.00 0.00
11:55 am 11:55 Sunny 49 9.5 33 0.7 54 54 NE 8 13 30.32 1027 10 16 0.00 0.00
12:55 pm 12:55 Sunny 52 11.1 33 0.8 49 49 Calm 30.30 1026 10 16 0.00 0.00
1:55 pm 13:55 Sunny 54 12.2 34 0.9 46 46 NE 9 15 30.27 1025 10 16 0.00 0.00
2:55 pm 14:55 Sunny 55 12.9 32 0 41 41 NE 9 15 30.24 1024 10 16 0.00 0.00
3:55 pm 15:55 Sunny 55 12.8 32 -0.1 41 41 E 5 7 30.23 1024 10 16 0.00 0.00
4:55 pm 16:55 Sunny 51 10.7 31 -0.8 45 45 E 5 7 30.23 1024 10 16 0.00 0.00
5:55 pm 17:55 Clear 47 8.5 31 -0.8 52 52 Calm 30.23 1024 10 16 0.00 0.00
6:55 pm 18:55 Clear 44 6.7 31 -0.7 59 59 Calm 30.22 1024 10 16 0.00 0.00
7:55 pm 19:55 Clear 40 4.4 31 -0.8 69 69 NE 5 7 30.23 1024 9 14 0.00 0.00
8:55 pm 20:55 Clear 42 5.4 31 -0.4 66 66 Calm 30.22 1024 10 16 0.00 0.00
9:55 pm 21:55 Clear 38 3.4 31 -0.8 74 74 Calm 30.21 1023 10 16 0.00 0.00
10:55 pm 22:55 Hazy 38 3.4 30 -1.2 72 72 Calm 30.19 1022 5 8 0.00 0.00
11:55 pm 23:55 Hazy 40 4.2 30 -1.2 68 68 Calm 30.18 1022 5 8 0.00 0.00

Powered by AerisWeather